DW9055 Largo FL US current weather conditions

sailwx.info

Wind from 129 at 0 knots gusting 7

Air temperature 22.2° C
Dewpoint 20.5° C

Last reported at 2019-Sep-20 13:45 UTC.
Time now 2019-Sep-20 14:18 UTC

Location: N 27°53' W 082°44'.
View on Google Maps.

See reports from other nearby stations

  
Tides and Currents Weather Stations Pressure Air Temp Water Temp Dewpoint Dewpoint Depression Visibility Wind Speed Wind Dir Waves Ship Positions
date/time (UTC)wind fromknots sea level pressurealtimeterstation pressurevisibilityair tempwater tempwave heightnotes
2019-Sep-20 13:45 129 0 gusting 7 22.2
2019-Sep-20 13:30 165 0 gusting 6 22.2
2019-Sep-20 13:16 130 2 gusting 6 22.2
2019-Sep-20 13:01 106 0 gusting 5 21.1
2019-Sep-20 12:47 125 20.6
2019-Sep-20 12:32 127 20.0
2019-Sep-20 12:19 144 20.0
2019-Sep-20 12:02 342 19.4
2019-Sep-20 11:46 342 19.4
2019-Sep-20 11:32 140 19.4
2019-Sep-20 11:16 129 19.4
2019-Sep-20 11:01 113 19.4
2019-Sep-20 10:46 117 19.4
2019-Sep-20 10:32 005 19.4
2019-Sep-20 10:17 138 19.4
2019-Sep-20 10:01 125 19.4
2019-Sep-20 09:45 128 19.4
2019-Sep-20 09:31 157 19.4
2019-Sep-20 09:16 156 19.4
2019-Sep-20 09:01 322 19.4
2019-Sep-20 08:46 124 19.4
2019-Sep-20 08:31 135 19.4
2019-Sep-20 08:16 130 19.4
2019-Sep-20 08:00 127 19.4
2019-Sep-20 07:45 127 20.0
2019-Sep-20 07:31 359 20.0
2019-Sep-20 07:15 137 20.0
2019-Sep-20 07:00 136 20.0
2019-Sep-20 06:45 136 20.6
2019-Sep-20 06:30 136 20.6
2019-Sep-20 06:15 110 21.1
2019-Sep-20 05:45 127 21.1
2019-Sep-20 05:30 134 21.1
2019-Sep-20 05:15 189 21.1
2019-Sep-20 05:00 199 21.1
2019-Sep-20 04:45 125 21.1
2019-Sep-20 04:30 143 21.1
2019-Sep-20 04:15 163 21.1
2019-Sep-20 04:02 180 0 gusting 5 21.1
2019-Sep-20 03:46 157 21.1
2019-Sep-20 03:31 129 21.1
2019-Sep-20 03:16 127 21.1
2019-Sep-20 03:02 118 21.1
2019-Sep-20 02:46 149 20.6
2019-Sep-20 02:32 130 20.6
2019-Sep-20 02:16 158 20.6
2019-Sep-20 02:01 128 20.6
2019-Sep-20 01:46 120 21.1
2019-Sep-20 01:33 107 21.1
2019-Sep-20 01:16 124 21.7
2019-Sep-20 01:02 159 1 gusting 7 22.8
2019-Sep-20 00:46 145 2 gusting 6 24.4
2019-Sep-20 00:31 149 0 gusting 6 24.4
2019-Sep-20 00:16 137 1 gusting 6 24.4
2019-Sep-20 00:01 129 2 gusting 8 25.0
2019-Sep-19 23:46 151 1 gusting 6 25.0
2019-Sep-19 23:31 135 25.6
2019-Sep-19 23:16 140 1 gusting 6 25.6
2019-Sep-19 23:00 147 1 gusting 4 26.7
2019-Sep-19 22:46 121 0 gusting 5 27.2
2019-Sep-19 22:31 146 0 gusting 4 27.8
2019-Sep-19 22:17 146 27.8
2019-Sep-19 22:01 144 2 gusting 8 28.9
2019-Sep-19 21:46 152 0 gusting 5 28.9
2019-Sep-19 21:30 111 0 gusting 10 28.9
2019-Sep-19 21:16 150 29.4
2019-Sep-19 21:00 137 29.4
2019-Sep-19 20:46 156 30.0
2019-Sep-19 20:31 089 1 gusting 5 30.0
2019-Sep-19 20:16 359 30.0
2019-Sep-19 20:01 182 1 gusting 9 29.4
2019-Sep-19 19:46 258 2 gusting 6 29.4
2019-Sep-19 19:30 212 0 gusting 5 30.0
2019-Sep-19 19:16 122 0 gusting 8 30.0
2019-Sep-19 19:00 112 0 gusting 6 30.0
2019-Sep-19 18:45 123 0 gusting 6 29.4
2019-Sep-19 18:31 149 2 gusting 7 28.9
2019-Sep-19 18:15 158 2 gusting 10 29.4
2019-Sep-19 18:00 146 29.4
2019-Sep-19 17:46 194 1 gusting 4 29.4
2019-Sep-19 17:30 099 1 gusting 6 28.3
2019-Sep-19 17:15 087 0 gusting 6 28.3
2019-Sep-19 17:00 153 1 gusting 7 28.3
2019-Sep-19 16:45 167 0 gusting 6 27.8
2019-Sep-19 16:30 144 0 gusting 7 27.8
2019-Sep-19 16:15 176 27.2
2019-Sep-19 16:01 125 0 gusting 6 27.2
2019-Sep-19 15:47 179 1 gusting 6 27.2
2019-Sep-19 15:32 115 0 gusting 7 26.7
2019-Sep-19 15:17 115 2 gusting 10 26.1
2019-Sep-19 15:01 316 25.0
2019-Sep-19 14:47 060 24.4
2019-Sep-19 14:31 106 23.3
2019-Sep-19 14:16 129 23.3
2019-Sep-19 14:00 120 23.3
2019-Sep-19 13:46 162 22.8
2019-Sep-19 13:30 139 0 gusting 3 22.2
2019-Sep-19 13:15 149 22.2
2019-Sep-19 13:00 136 21.7
2019-Sep-19 12:45 169 21.1
2019-Sep-19 12:30 166 21.1
2019-Sep-19 12:15 070 21.1
2019-Sep-19 12:00 032 20.6
2019-Sep-19 11:45 176 20.6
2019-Sep-19 11:30 183 20.6
2019-Sep-19 11:15 115 20.6
2019-Sep-19 11:00 111 20.6
2019-Sep-19 10:45 152 20.6
2019-Sep-19 10:30 103 20.6
2019-Sep-19 10:15 162 20.6
2019-Sep-19 10:00 129 20.6
2019-Sep-19 09:45 132 20.6
2019-Sep-19 09:30 133 20.6
2019-Sep-19 09:15 139 20.6
2019-Sep-19 09:00 129 20.6
2019-Sep-19 08:45 077 21.1
2019-Sep-19 08:30 077 21.1
2019-Sep-19 08:15 077 21.1
2019-Sep-19 08:00 077 21.1
2019-Sep-19 07:46 077 21.7
2019-Sep-19 07:31 077 21.7
2019-Sep-19 07:16 078 21.7
2019-Sep-19 07:02 108 21.7
2019-Sep-19 06:46 115 22.2
2019-Sep-19 06:31 119 22.2
2019-Sep-19 06:17 134 22.2
2019-Sep-19 06:01 139 22.2
2019-Sep-19 05:46 137 22.2
2019-Sep-19 05:31 095 22.8
2019-Sep-19 05:17 110 22.8
2019-Sep-19 05:01 123 22.8
2019-Sep-19 04:46 125 22.8
2019-Sep-19 04:31 109 22.8
2019-Sep-19 04:17 113 22.8
2019-Sep-19 04:01 128 22.8
2019-Sep-19 03:46 318 22.8
2019-Sep-19 03:31 126 22.8
2019-Sep-19 03:16 133 22.8
2019-Sep-19 03:01 132 22.8
2019-Sep-19 02:45 177 22.8
2019-Sep-19 02:31 177 22.8
2019-Sep-19 02:17 177 22.8
2019-Sep-19 02:01 177 22.8
2019-Sep-19 01:46 177 22.8
2019-Sep-19 01:30 177 22.8
2019-Sep-19 01:16 177 22.8
2019-Sep-19 01:01 177 23.3
2019-Sep-19 00:45 177 23.3
2019-Sep-19 00:30 177 23.3
2019-Sep-19 00:15 177 23.3
2019-Sep-19 00:00 177 23.9
2019-Sep-18 23:46 178 23.9
2019-Sep-18 23:30 178 23.9
2019-Sep-18 23:15 178 23.9
2019-Sep-18 23:00 177 23.9
2019-Sep-18 22:45 177 23.9
2019-Sep-18 22:30 348 23.9
2019-Sep-18 22:15 348 23.9
2019-Sep-18 22:01 330 23.9
2019-Sep-18 21:45 330 23.9
2019-Sep-18 21:31 323 23.9
2019-Sep-18 21:15 323 23.3
2019-Sep-18 21:00 297 23.3
2019-Sep-18 20:45 297 22.8
2019-Sep-18 20:15 120 2 gusting 7 30.0
2019-Sep-18 20:00 326 33.3
2019-Sep-18 19:45 360 0 gusting 6 33.9
2019-Sep-18 19:30 322 1 gusting 4 34.4
2019-Sep-18 19:16 298 2 gusting 6 34.4
2019-Sep-18 19:01 218 34.4
2019-Sep-18 18:47 224 34.4
2019-Sep-18 18:32 326 1 gusting 5 34.4
2019-Sep-18 18:16 331 0 gusting 5 34.4
2019-Sep-18 18:01 343 33.9
2019-Sep-18 17:46 129 33.9
2019-Sep-18 17:32 063 33.3
2019-Sep-18 17:17 151 33.3
2019-Sep-18 17:01 274 32.8
2019-Sep-18 16:46 226 0 gusting 3 32.8
2019-Sep-18 16:30 155 32.8
2019-Sep-18 16:16 302 0 gusting 4 32.8
2019-Sep-18 16:00 311 32.2
2019-Sep-18 15:45 299 31.7
2019-Sep-18 15:31 286 31.1
2019-Sep-18 15:15 321 30.0
2019-Sep-18 15:00 303 29.4
2019-Sep-18 14:45 104 28.3
2019-Sep-18 14:30 001 27.8
2019-Sep-18 14:15 359 27.2
2019-Sep-18 14:00 172 27.2